Location: *
(51.4660°N, 0.3360°W)
Time: 09:07:25
(UTC+00:00)

Terra - Pass Details

Date: 19 September 2019
Orbit: 701 x 703 km, 98.2° (Epoch: 15 October)

Event Time Altitude Azimuth Distance (km) Brightness Sun altitude
Exits shadow 20:49:58 29° 47° (NE) 1,299 3.1 -24.3°
Drops below altitude 10° 20:53:26 10° 3° (N) 2,183 4.8 -24.8°
Sets 20:55:54 0° 353° (N) 3,106 5.8 -25.1°
